[Date Prev][Date Next][Thread Prev][Thread Next] - [Date Index][Thread Index][Author Index]

2 Line ISS Keps 4-8



ISS
1 25544U 98067A   04099.31535880  .00026408  00000-0  23701-3 0  5302
2 25544  51.6295 321.8251 0010512   8.0112 327.4669 15.68025334307344


----
Via the sarex mailing list at AMSAT.ORG courtesy of AMSAT-NA.
To unsubscribe, send "unsubscribe sarex" to Majordomo@amsat.org



AMSAT Top AMSAT Home